Location: Doverdale
(52.2833°N, 2.2000°W)
Time: 02:16:48
(UTC+00:00)

Cosmos 1980 Rocket - Pass Details

Date: 06 March 2021
Orbit: 828 x 851 km, 71.0° (Epoch: 15 April)

Event Time Altitude Azimuth Distance (km) Brightness Sun altitude
Rises 21:39:43 0° 309° (NW) 3,423 6.5 -32.6°
Reaches altitude 10° 21:44:14 10° 342° (NNW) 2,490 5.3 -33.2°
Maximum altitude 21:46:05 12° 1° (N) 2,384 4.9 -33.4°
Drops below altitude 10° 21:47:57 10° 20° (NNE) 2,491 4.8 -33.6°
Enters shadow 21:49:28 - 34° (NE) 2,720 4.9 -33.8°
